This is the latest recevied weather packets stored in our database for station/object K6POO-1. If no packets are shown the sender has not sent any weather packets the latest 10 day(s).
| Time | Temp. | Humidity | Pressure | Rain* | Wind** | Luminosity | Snow |
|---|---|---|---|---|---|---|---|
| 1788213126 | 17.78° C | 76% | 1014.5 hPa | 0 mm | - | 304 W/m² | - |
| 1788212822 | 17.78° C | 77% | 1014.6 hPa | 0 mm | - | 354 W/m² | - |
| 1788212519 | 17.78° C | 78% | 1014.5 hPa | 0 mm | - | 332 W/m² | - |
| 1788212214 | 17.22° C | 78% | 1014.8 hPa | 0 mm | - | 349 W/m² | - |
| 1788211910 | 17.22° C | 78% | 1014.8 hPa | 0 mm | - | 283 W/m² | - |
| 1788211606 | 17.22° C | 79% | 1014.6 hPa | 0 mm | - | 352 W/m² | - |
| 1788211303 | 17.22° C | 79% | 1014.7 hPa | 0 mm | - | 313 W/m² | - |
| 1788211002 | 16.67° C | 79% | 1014.8 hPa | 0 mm | - | 287 W/m² | - |
| 1788210701 | 17.22° C | 79% | 1014.9 hPa | 0 mm | - | 261 W/m² | - |
| 1788210396 | 17.22° C | 79% | 1015 hPa | 0 mm | - | 292 W/m² | - |
| 1788210093 | 17.22° C | 80% | 1015 hPa | 0 mm | - | 342 W/m² | - |
| 1788209791 | 16.67° C | 80% | 1015 hPa | 0 mm | - | 374 W/m² | - |
| 1788209488 | 16.67° C | 80% | 1015 hPa | 0 mm | - | 328 W/m² | - |
| 1788209187 | 17.22° C | 78% | 1015.1 hPa | 0 mm | - | 349 W/m² | - |
| 1788208886 | 17.22° C | 78% | 1015 hPa | 0 mm | - | 428 W/m² | - |
| 1788208581 | 17.22° C | 80% | 1014.9 hPa | 0 mm | - | 281 W/m² | - |
| 1788208280 | 16.67° C | 80% | 1015 hPa | 0 mm | - | 270 W/m² | - |
| 1788207979 | 16.67° C | 79% | 1015 hPa | 0 mm | - | 292 W/m² | - |
| 1788207674 | 17.22° C | 80% | 1014.8 hPa | 0 mm | - | 394 W/m² | - |
| 1788207373 | 16.67° C | 81% | 1015.1 hPa | 0 mm | - | 350 W/m² | - |
| 1788207068 | 16.67° C | 79% | 1014.9 hPa | 0 mm | - | 348 W/m² | - |
| 1788206764 | 16.67° C | 80% | 1014.9 hPa | 0 mm | - | 322 W/m² | - |
| 1788206464 | 17.22° C | 77% | 1015 hPa | 0 mm | - | 415 W/m² | - |
| 1788206159 | 17.22° C | 79% | 1014.9 hPa | 0 mm | - | 343 W/m² | - |
| 1788205854 | 16.67° C | 81% | 1014.9 hPa | 0 mm | - | 352 W/m² | - |
* Rain latest hour (hover to see other rain measurements)
** Current wind speed in m/s (hover to see current wind gust speed)